This is the latest recevied weather packets stored in our database for station/object YM2KA-13. If no packets are shown the sender has not sent any weather packets the latest 1 day(s).
| Time | Temp. | Humidity | Pressure | Rain* | Wind** | Luminosity | Snow |
|---|---|---|---|---|---|---|---|
| 1778008043 | 8.89° C | 79% | 1013.7 hPa | 0 mm | 0.45 m/s, 274° | - | - |
| 1778007829 | 8.89° C | 79% | 1013.7 hPa | 0 mm | 0.45 m/s, 229° | - | - |
| 1778007221 | 8.89° C | 79% | 1013.8 hPa | 0 mm | 0.45 m/s, 264° | - | - |
| 1778007140 | 8.89° C | 79% | 1013.8 hPa | 0 mm | 0.45 m/s, 258° | - | - |
| 1778006622 | 8.89° C | 78% | 1013.7 hPa | 0 mm | 0.89 m/s, 266° | - | - |
| 1778006246 | 8.89° C | 78% | 1013.7 hPa | 0 mm | 1.34 m/s, 275° | - | - |
| 1778006022 | 8.89° C | 78% | 1013.7 hPa | 0 mm | 0.45 m/s, 276° | - | - |
| 1778005424 | 8.89° C | 76% | 1013.5 hPa | 0 mm | 0.89 m/s, 289° | - | - |
| 1778005343 | 8.89° C | 76% | 1013.4 hPa | 0 mm | 0.89 m/s, 293° | - | - |
| 1778004825 | 8.89° C | 74% | 1013.4 hPa | 0 mm | 1.34 m/s, 279° | - | - |
| 1778004439 | 8.89° C | 74% | 1013.3 hPa | 0 mm | 0.45 m/s, 271° | - | - |
| 1778004226 | 8.89° C | 74% | 1013.2 hPa | 0 mm | 0.45 m/s, 271° | - | - |
| 1778003627 | 8.89° C | 74% | 1013 hPa | 0 mm | 1.34 m/s, 271° | - | - |
| 1778003546 | 8.89° C | 74% | 1013 hPa | 0 mm | 1.34 m/s, 259° | - | - |
| 1778003029 | 8.89° C | 75% | 1013 hPa | 0 mm | 0.89 m/s, 225° | - | - |
| 1778002643 | 8.89° C | 76% | 1013 hPa | 0 mm | 0.45 m/s, 250° | - | - |
| 1778002429 | 9.44° C | 76% | 1013 hPa | 0 mm | 0.45 m/s, 261° | - | - |
| 1778001821 | 9.44° C | 75% | 1012.9 hPa | 0 mm | 2.24 m/s, 259° | - | - |
| 1778001739 | 9.44° C | 76% | 1012.9 hPa | 0 mm | 2.24 m/s, 266° | - | - |
| 1778001222 | 9.44° C | 76% | 1012.8 hPa | 0 mm | 0 m/s | - | - |
| 1778000846 | 10° C | 75% | 1012.8 hPa | 0 mm | 0.89 m/s, 260° | - | - |
| 1778000622 | 10° C | 75% | 1012.8 hPa | 0 mm | 0.45 m/s, 284° | - | - |
| 1778000024 | 10° C | 74% | 1012.7 hPa | 0 mm | 0.45 m/s, 264° | - | - |
| 1777999943 | 10° C | 73% | 1012.7 hPa | 0 mm | 0.89 m/s, 274° | - | - |
| 1777999425 | 10.56° C | 72% | 1012.7 hPa | 0 mm | 0.45 m/s, 281° | - | - |
* Rain latest hour (hover to see other rain measurements)
** Current wind speed in m/s (hover to see current wind gust speed)